Location: Dzierzno
(50.6159°N, 19.2852°E)
Time: 00:38:46
(UTC+00:00)

Cosmos 1269 Rocket - Pass Details

Date: 18 November 2025
Orbit: 768 x 775 km, 74.1° (Epoch: 05 December)

Event Time Altitude Azimuth Distance (km) Brightness Sun altitude
Rises 15:30:46 0° 195° (SSW) 3,228 7.8 -6.2°
Reaches altitude 10° 15:33:08 10° 194° (SSW) 2,307 7.0 -6.6°
Maximum altitude 15:38:20 72° 111° (ESE) 813 4.0 -7.3°
Drops below altitude 10° 15:43:36 10° 28° (NNE) 2,328 6.1 -8.1°
Enters shadow 15:45:48 - 26° (NNE) 3,181 6.8 -8.4°
